Skip Page Navigation
NASA JPL Caltech
NASA Logo - Jet Propulsion Laboratory + View the NASA Portal
+ Near-Earth Object (NEO) Program
Search JPL
JPL Home Earth Solar System Stars & Galaxies Technology
JPL Solar System Dynamics
BODIES ORBITS EPHEMERIDES TOOLS PHYSICAL DATA DISCOVERY FAQ SITE MAP
JPL Small-Body Database Browser
Search: [ help ]  
5718 (1983 PB)
Classification: Main-belt Asteroid          SPK-ID: 2005718
Ephemeris | Orbit Diagram | Orbital Elements | Physical Parameters | Discovery Circumstances ]

[ show orbit diagram ]
Orbital Elements at Epoch 2457000.5 (2014-Dec-09.0) TDB
Reference: JPL 11 (heliocentric ecliptic J2000)
 Element Value Uncertainty (1-sigma)   Units 
e .2309302523669528 5.267e-08  
a 2.21466660131051 1.3326e-08 AU
q 1.703233084161212 1.1265e-07 AU
i 6.084203090281392 5.8375e-06 deg
node 73.33246172319451 4.5835e-05 deg
peri 243.3479451019194 4.7916e-05 deg
M 186.5853993463948 1.541e-05 deg
tp 2457580.387998527013
(2016-Jul-10.88799853)
5.5017e-05 JED
period 1203.818356025978
3.30
1.0866e-05
2.975e-08
d
yr
n .2990484388262903 2.6992e-09 deg/d
Q 2.726100118459807 1.6404e-08 AU
  Orbit Determination Parameters
   # obs. used (total)      771  
   data-arc span      11187 days (30.63 yr)  
   first obs. used      1983-08-08  
   last obs. used      2014-03-25  
   planetary ephem.      DE431  
   SB-pert. ephem.      SB431-BIG16  
   condition code      0  
   fit RMS      .56942  
   data source      ORB  
   producer      Otto Matic  
   solution date      2014-Jun-16 13:32:33  

Additional Information
 Earth MOID = .701241 AU 
 T_jup = 3.612 
[ show covariance matrix ]

Ephemeris | Orbit Diagram | Orbital Elements | Physical Parameters | Discovery Circumstances ]

Physical Parameter Table
Parameter Symbol Value Units Sigma Reference Notes
absolute magnitude H 15.0 mag n/a MPO279575  

5718 (1983 PB)          Discovered 1983-Aug-04 by Gilmore and Kilmartin at Lake Tekapo
Reference: DISCOVERY.DBLast Updated: 2003-08-29
Ephemeris | Orbit Diagram | Orbital Elements | Physical Parameters | Discovery Circumstances ]
ABOUT SSD CREDITS/AWARDS PRIVACY/COPYRIGHT GLOSSARY LINKS
FirstGov 2014-Oct-24 23:53 UT
(server date/time)  
NASA Home Page
Site Manager:   Donald K. Yeomans
Webmaster  Alan B. Chamberlin